Meteo pe oră la Abdul-Gazy

Astăzi, 29 Iulie, Joi

Timp Temperatura Precipitaţii Vânt Presiune Umiditate
00:00 +20°C° 0 mm 4 m/s 758 mmHg 64%
01:00 +20°C° 0 mm 3 m/s 758 mmHg 65%
02:00 +19°C° 0 mm 3 m/s 758 mmHg 65%
03:00 +19°C° 0 mm 3 m/s 758 mmHg 66%
04:00 +20°C° 0 mm 2 m/s 758 mmHg 63%
05:00 +20°C° 0 mm 2 m/s 757 mmHg 59%
06:00 +22°C° 0 mm 1 m/s 757 mmHg 56%
07:00 +25°C° 0 mm 1 m/s 757 mmHg 48%
08:00 +27°C° 0 mm 1 m/s 757 mmHg 40%
09:00 +27°C° 0 mm 0 m/s 758 mmHg 32%
10:00 +31°C° 0 mm 1 m/s 757 mmHg 28%
11:00 +32°C° 0 mm 2 m/s 757 mmHg 24%
12:00 +35°C° 0 mm 3 m/s 756 mmHg 21%
13:00 +35°C° 0 mm 3 m/s 756 mmHg 20%
14:00 +36°C° 0 mm 3 m/s 756 mmHg 19%
15:00 +36°C° 0 mm 3 m/s 755 mmHg 18%
16:00 +36°C° 0 mm 3 m/s 755 mmHg 18%
17:00 +36°C° 0 mm 3 m/s 755 mmHg 18%
18:00 +35°C° 0 mm 3 m/s 755 mmHg 19%
19:00 +34°C° 0 mm 3 m/s 755 mmHg 21%
20:00 +32°C° 0 mm 4 m/s 755 mmHg 24%
21:00 +29°C° 0 mm 5 m/s 755 mmHg 27%
22:00 +28°C° 0 mm 4 m/s 755 mmHg 29%
23:00 +26°C° 0 mm 3 m/s 755 mmHg 31%

Mâine, 30 Iulie, Vineri

Timp Temperatura Precipitaţii Vânt Presiune Umiditate
00:00 +25°C° 0 mm 3 m/s 755 mmHg 33%
01:00 +25°C° 0 mm 2 m/s 755 mmHg 35%
02:00 +24°C° 0 mm 2 m/s 755 mmHg 36%
03:00 +23°C° 0 mm 2 m/s 755 mmHg 38%
04:00 +24°C° 0 mm 2 m/s 755 mmHg 39%
05:00 +24°C° 0 mm 2 m/s 755 mmHg 41%
06:00 +24°C° 0 mm 2 m/s 756 mmHg 43%
07:00 +26°C° 0 mm 3 m/s 756 mmHg 37%
08:00 +29°C° 0 mm 4 m/s 756 mmHg 32%
09:00 +32°C° 0 mm 5 m/s 756 mmHg 27%
10:00 +33°C° 0 mm 5 m/s 755 mmHg 25%
11:00 +35°C° 0 mm 6 m/s 755 mmHg 22%
12:00 +36°C° 0 mm 6 m/s 754 mmHg 19%
13:00 +38°C° 0 mm 6 m/s 754 mmHg 19%
14:00 +38°C° 0 mm 7 m/s 754 mmHg 19%
15:00 +39°C° 0 mm 7 m/s 753 mmHg 19%
16:00 +38°C° 0 mm 7 m/s 753 mmHg 20%
17:00 +36°C° 0 mm 7 m/s 753 mmHg 22%
18:00 +35°C° 0 mm 7 m/s 753 mmHg 24%
19:00 +33°C° 0 mm 7 m/s 754 mmHg 28%
20:00 +30°C° 0 mm 6 m/s 754 mmHg 32%
21:00 +28°C° 0 mm 5 m/s 754 mmHg 36%
22:00 +27°C° 0 mm 4 m/s 754 mmHg 40%
23:00 +26°C° 0 mm 4 m/s 754 mmHg 45%

Poimâine, 31 Iulie, Sâmbătă

Timp Temperatura Precipitaţii Vânt Presiune Umiditate
00:00 +25°C° 0 mm 3 m/s 754 mmHg 49%
01:00 +24°C° 0 mm 3 m/s 753 mmHg 52%
02:00 +24°C° 0 mm 2 m/s 753 mmHg 55%
03:00 +23°C° 0 mm 2 m/s 753 mmHg 58%
04:00 +24°C° 0 mm 1 m/s 753 mmHg 57%
05:00 +24°C° 0 mm 1 m/s 754 mmHg 57%
06:00 +25°C° 0 mm 1 m/s 754 mmHg 56%
07:00 +27°C° 0 mm 2 m/s 754 mmHg 50%
08:00 +29°C° 0 mm 2 m/s 754 mmHg 44%
09:00 +30°C° 0 mm 3 m/s 754 mmHg 38%
10:00 +33°C° 0 mm 3 m/s 753 mmHg 35%
11:00 +34°C° 0 mm 3 m/s 753 mmHg 31%
12:00 +36°C° 0 mm 3 m/s 753 mmHg 28%
13:00 +36°C° 0 mm 3 m/s 752 mmHg 26%
14:00 +37°C° 0 mm 3 m/s 752 mmHg 25%
15:00 +38°C° 0 mm 3 m/s 752 mmHg 23%
16:00 +37°C° 0 mm 4 m/s 752 mmHg 23%
17:00 +37°C° 0 mm 4 m/s 752 mmHg 23%
18:00 +37°C° 0 mm 4 m/s 752 mmHg 24%
19:00 +35°C° 0 mm 4 m/s 752 mmHg 27%
20:00 +32°C° 0 mm 4 m/s 753 mmHg 31%
21:00 +29°C° 0 mm 4 m/s 753 mmHg 34%
22:00 +29°C° 0 mm 4 m/s 753 mmHg 36%
23:00 +28°C° 0 mm 4 m/s 753 mmHg 38%

1 August, Duminică

Timp Temperatura Precipitaţii Vânt Presiune Umiditate
00:00 +27°C° 0 mm 3 m/s 753 mmHg 39%
01:00 +27°C° 0 mm 3 m/s 753 mmHg 40%
02:00 +27°C° 0 mm 3 m/s 753 mmHg 41%
03:00 +26°C° 0 mm 2 m/s 753 mmHg 42%
04:00 +27°C° 0 mm 2 m/s 753 mmHg 42%
05:00 +27°C° 0 mm 2 m/s 754 mmHg 42%
06:00 +27°C° 0 mm 2 m/s 754 mmHg 43%
07:00 +29°C° 0 mm 2 m/s 754 mmHg 37%
08:00 +32°C° 0 mm 2 m/s 754 mmHg 31%
09:00 +34°C° 0 mm 1 m/s 754 mmHg 26%
10:00 +36°C° 0 mm 2 m/s 754 mmHg 22%
11:00 +38°C° 0 mm 3 m/s 754 mmHg 18%
12:00 +39°C° 0 mm 3 m/s 753 mmHg 15%
13:00 +40°C° 0 mm 3 m/s 753 mmHg 14%
14:00 +40°C° 0 mm 3 m/s 753 mmHg 14%
15:00 +42°C° 0 mm 3 m/s 752 mmHg 14%
16:00 +40°C° 0 mm 3 m/s 752 mmHg 14%
17:00 +40°C° 0 mm 3 m/s 752 mmHg 14%
18:00 +40°C° 0 mm 3 m/s 752 mmHg 14%
19:00 +37°C° 0 mm 3 m/s 752 mmHg 21%
20:00 +34°C° 0 mm 4 m/s 753 mmHg 27%
21:00 +30°C° 0 mm 4 m/s 753 mmHg 34%
22:00 +30°C° 0 mm 3 m/s 753 mmHg 37%
23:00 +29°C° 0 mm 2 m/s 753 mmHg 41%

2 August, Luni

Timp Temperatura Precipitaţii Vânt Presiune Umiditate
00:00 +28°C° 0 mm 2 m/s 753 mmHg 44%
01:00 +28°C° 0 mm 2 m/s 753 mmHg 43%
02:00 +27°C° 0 mm 2 m/s 753 mmHg 42%
03:00 +27°C° 0 mm 2 m/s 753 mmHg 41%
04:00 +27°C° 0 mm 2 m/s 753 mmHg 42%
05:00 +27°C° 0 mm 2 m/s 753 mmHg 43%
06:00 +27°C° 0 mm 2 m/s 753 mmHg 43%
07:00 +29°C° 0 mm 3 m/s 753 mmHg 40%
08:00 +31°C° 0 mm 3 m/s 753 mmHg 36%
09:00 +35°C° 0 mm 3 m/s 754 mmHg 33%
10:00 +36°C° 0 mm 3 m/s 753 mmHg 30%
11:00 +38°C° 0 mm 3 m/s 753 mmHg 26%
12:00 +39°C° 0 mm 3 m/s 752 mmHg 23%
13:00 +40°C° 0 mm 3 m/s 752 mmHg 21%
14:00 +42°C° 0 mm 3 m/s 752 mmHg 19%
15:00 +42°C° 0 mm 3 m/s 751 mmHg 17%
16:00 +42°C° 0 mm 4 m/s 751 mmHg 17%
17:00 +41°C° 0 mm 5 m/s 751 mmHg 17%
18:00 +41°C° 0 mm 6 m/s 751 mmHg 17%
19:00 +39°C° 0 mm 6 m/s 752 mmHg 20%
20:00 +36°C° 0 mm 6 m/s 752 mmHg 22%
21:00 +33°C° 0 mm 6 m/s 752 mmHg 25%
22:00 +32°C° 0 mm 5 m/s 752 mmHg 30%
23:00 +30°C° 0 mm 5 m/s 752 mmHg 35%

3 August, Marţi

Timp Temperatura Precipitaţii Vânt Presiune Umiditate
00:00 +28°C° 0 mm 4 m/s 752 mmHg 40%
01:00 +28°C° 0 mm 4 m/s 752 mmHg 42%
02:00 +27°C° 0 mm 3 m/s 752 mmHg 44%
03:00 +26°C° 0 mm 3 m/s 752 mmHg 46%
04:00 +26°C° 0 mm 3 m/s 752 mmHg 45%
05:00 +27°C° 0 mm 2 m/s 753 mmHg 44%
06:00 +27°C° 0 mm 2 m/s 753 mmHg 44%
07:00 +30°C° 0 mm 3 m/s 753 mmHg 36%
08:00 +33°C° 0 mm 3 m/s 753 mmHg 29%
09:00 +36°C° 0 mm 3 m/s 753 mmHg 21%
10:00 +38°C° 0 mm 4 m/s 753 mmHg 19%
11:00 +40°C° 0 mm 4 m/s 753 mmHg 16%
12:00 +42°C° 0 mm 5 m/s 752 mmHg 14%
13:00 +42°C° 0 mm 5 m/s 752 mmHg 14%
14:00 +43°C° 0 mm 4 m/s 752 mmHg 14%
15:00 +43°C° 0 mm 4 m/s 751 mmHg 14%
16:00 +43°C° 0 mm 4 m/s 751 mmHg 14%
17:00 +42°C° 0 mm 5 m/s 751 mmHg 14%
18:00 +42°C° 0 mm 5 m/s 751 mmHg 15%
19:00 +39°C° 0 mm 5 m/s 752 mmHg 16%
20:00 +36°C° 0 mm 5 m/s 752 mmHg 18%
21:00 +34°C° 0 mm 5 m/s 752 mmHg 19%
22:00 +33°C° 0 mm 4 m/s 753 mmHg 20%
23:00 +32°C° 0 mm 4 m/s 753 mmHg 21%
Arată mai mult

Formular de consimțământ

Meteoprog și furnizorii noștri de servicii pot stoca și accesa date personale, precum cookies, identificatori de dispozitiv sau alte tehnologii similare pe dispozitivul dumneavoastră și procesa astfel de date pentru a personaliza conținutul și reclamele, dar și pentru a oferi caracteristici de social media și pentru a analiza traficul.

  • Stocarea și/sau accesarea informațiilor pe dispozitivul dumneavoastră

    Cookies, identificatori de dispozitiv sau alte informații pot fi stocate sau accesate pe dispozitiv în scopurile indicate mai sus.

  • Reclame și conținut personalizat, evaluarea reclamelor și a conținutului, informații despre audiențe și dezvoltarea produselor

    Reclamele și conținutul pot fi personalizate pe baza unui profil. Pot fi adăugate date suplimentare pentru a personaliza mai bine reclamele și conținutul. Performanța reclamelor și conținutului poate fi măsurată. Pot fi obținute informații despre utilizatorii care au văzut reclamele și conținutul. Aceste date pot fi utilizate pentru a dezvolta sau îmbunătăți experiența utilizatorilor, sistemele și software-ul.

Dând clic pe ‘Sunt de acord’, permiteți utilizarea cookie-urilor menționate, a identificatorilor de dispozitiv, balizelor web sau altor tehnologii similare. Setările pot fi modificate din browser-ul dispozitivului dumneavoastră.

În anumite scopuri, interesele legitime pot prima asupra consimțământului. Puteți citi mai multe informații în acest sens în Politica privind Confidențialitatea Datelor și Cookie.